This is the latest recevied weather packets stored in our database for station/object DC9PA-13. If no packets are shown the sender has not sent any weather packets the latest 1 day(s).
| Time | Temp. | Humidity | Pressure | Rain* | Wind** | Luminosity | Snow |
|---|---|---|---|---|---|---|---|
| 1778021256 | 12.78° C | 92% | 994.7 hPa | 2.03 mm | 0 m/s | - | - |
| 1778021226 | 12.78° C | 92% | 994.7 hPa | 2.03 mm | 0 m/s | - | - |
| 1778021196 | 12.78° C | 91% | 994.7 hPa | 2.03 mm | 0.89 m/s, 202° | - | - |
| 1778021166 | 12.78° C | 91% | 994.7 hPa | 2.03 mm | 0 m/s | - | - |
| 1778021136 | 12.78° C | 91% | 994.6 hPa | 2.03 mm | 0 m/s | - | - |
| 1778021128 | 12.78° C | 91% | 994.6 hPa | 2.03 mm | 0.89 m/s, 202° | - | - |
| 1778021067 | 12.78° C | 91% | 994.6 hPa | 1.52 mm | 1.34 m/s, 202° | - | - |
| 1778021016 | 12.78° C | 92% | 994.6 hPa | 1.52 mm | 0.45 m/s, 180° | - | - |
| 1778020986 | 12.78° C | 92% | 994.6 hPa | 1.52 mm | 0 m/s | - | - |
| 1778020977 | 12.78° C | 92% | 994.6 hPa | 1.52 mm | 1.34 m/s, 180° | - | - |
| 1778020926 | 12.78° C | 93% | 994.6 hPa | 1.52 mm | 0.89 m/s, 180° | - | - |
| 1778020896 | 12.78° C | 93% | 994.6 hPa | 1.52 mm | 0 m/s | - | - |
| 1778020866 | 12.78° C | 92% | 994.6 hPa | 1.52 mm | 0 m/s | - | - |
| 1778020776 | 12.78° C | 93% | 994.9 hPa | 1.52 mm | 1.34 m/s, 180° | - | - |
| 1778020686 | 12.78° C | 92% | 994.9 hPa | 1.52 mm | 0 m/s | - | - |
| 1778020678 | 12.78° C | 92% | 994.9 hPa | 1.52 mm | 0 m/s | - | - |
| 1778020626 | 12.78° C | 92% | 994.9 hPa | 1.52 mm | 0.45 m/s, 202° | - | - |
| 1778020596 | 12.78° C | 92% | 994.9 hPa | 1.52 mm | 0.89 m/s, 202° | - | - |
| 1778020566 | 12.78° C | 92% | 994.9 hPa | 1.52 mm | 2.24 m/s, 225° | - | - |
| 1778020536 | 12.78° C | 92% | 994.9 hPa | 1.52 mm | 0.89 m/s, 180° | - | - |
| 1778020506 | 12.78° C | 92% | 994.9 hPa | 1.52 mm | 0.89 m/s, 180° | - | - |
| 1778020476 | 12.78° C | 92% | 994.9 hPa | 1.52 mm | 1.79 m/s, 180° | - | - |
| 1778020446 | 12.78° C | 93% | 994.9 hPa | 1.27 mm | 1.79 m/s, 270° | - | - |
| 1778020356 | 12.78° C | 92% | 994.9 hPa | 1.27 mm | 1.34 m/s, 202° | - | - |
| 1778020326 | 12.78° C | 92% | 994.9 hPa | 1.27 mm | 1.79 m/s, 248° | - | - |
* Rain since midnight (hover to see other rain measurements)
** Current wind speed in m/s (hover to see current wind gust speed)